Weather History for KRCZ - October, 2012

Change the Weather History Date:

Friday, October 19, 2012

  Actual Average (KFAY) Record (KFAY)
Temperature  
Mean Temperature 64 °F 62 °F  
Max Temperature 93 °F 74 °F 90 °F (1926)
Min Temperature 54 °F 51 °F 32 °F (1931)
Degree Days  
Heating Degree Days 1 4  
Month to date heating degree days 48  
Since 1 July heating degree days 57  
Cooling Degree Days 0 2  
Month to date cooling degree days 55  
Year to date cooling degree days 1963  
Growing Degree Days 14 (Base 50)    
Moisture  
Dew Point 53 °F    
Average Humidity 67    
Maximum Humidity 100    
Minimum Humidity 26    
Precipitation  
Precipitation 0.15 in 0.09 in 1.65 in (1916)
Month to date precipitation 2.33  
Year to date precipitation 38.16  
Sea Level Pressure  
Sea Level Pressure 29.78 in    
Wind  
Wind Speed 6 mph (SW)    
Max Wind Speed 15 mph    
Max Gust Speed 22 mph    
Visibility 8 miles    
Events Rain    
T = Trace of Precipitation, MM = Missing Value Source: NWS Daily Summary

Daily Weather History Graph

Daily Weather History Graph

Search for Another Location

Airport or City:

Trip Planner

Search our weather history database for the weather conditions in past years. The results will help you decide how hot, cold, wet, or windy it might be!

Date:

Astronomy

Oct. 19, 2012 Rise Set
Actual Time 7:28 AM EDT 6:38 PM EDT
Civil Twilight 7:03 AM EDT 7:04 PM EDT
Nautical Twilight 6:33 AM EDT 7:33 PM EDT
Astronomical Twilight 6:04 AM EDT 8:02 PM EDT
Moon 12:01 PM EDT (10/19) 10:22 PM EDT (10/19)
Length of Visible Light 12h 01m
Length of Day
11h 09m
Waxing Crescent, 23% of the Moon is Illuminated
Oct 19
Waxing Crescent
Oct 21
First Quarter
Oct 29
Full
Nov 6
Last Quarter
Nov 13
New

Hourly Weather History & Observations

Time (EDT) Temp. Dew Point Humidity Pressure Visibility Wind Dir Wind Speed Gust Speed Precip Events Conditions
2:15 AM 66.6 °F 66.6 °F 100% 29.78 in 5.0 mi South 5.8 mph - N/A   Overcast
2:35 AM 66.9 °F 66.7 °F 99% 29.77 in 5.0 mi South 6.9 mph - N/A   Overcast
2:55 AM 67.1 °F 67.1 °F 100% 29.77 in 5.0 mi SSW 4.6 mph - N/A   Overcast
3:15 AM 66.9 °F 66.7 °F 99% 29.77 in 2.0 mi SW 5.8 mph - 0.13 in Rain Heavy Rain
3:35 AM 66.6 °F 66.6 °F 100% 29.76 in 4.0 mi SSW 4.6 mph - 0.15 in Rain Light Rain
3:55 AM 66.4 °F 66.4 °F 100% 29.76 in 7.0 mi SSW 4.6 mph - 0.15 in   Overcast
4:15 AM 66.4 °F 66.4 °F 100% 29.76 in 7.0 mi SSW 4.6 mph - N/A   Overcast
4:55 AM 66.2 °F 66.2 °F 100% 29.76 in 7.0 mi SSW 4.6 mph - N/A   Overcast
5:15 AM 66.2 °F 66.0 °F 99% 29.77 in 7.0 mi Calm Calm - N/A   Overcast
5:55 AM 65.8 °F 65.8 °F 100% 29.77 in 5.0 mi SSW 3.5 mph - N/A   Overcast
6:15 AM 65.7 °F 65.7 °F 100% 29.78 in 5.0 mi SW 4.6 mph - N/A   Overcast
6:35 AM 65.5 °F 65.5 °F 100% 29.77 in 7.0 mi SSW 4.6 mph - N/A   Overcast
6:55 AM 65.5 °F 65.5 °F 100% 29.77 in 7.0 mi SW 6.9 mph - N/A   Overcast
7:15 AM 65.3 °F 64.9 °F 99% 29.78 in 7.0 mi WSW 8.1 mph - N/A   Overcast
7:35 AM 64.8 °F 64.6 °F 99% 29.78 in 5.0 mi West 6.9 mph - N/A   Overcast
7:55 AM 64.0 °F 63.9 °F 99% 29.77 in 3.0 mi West 3.5 mph - N/A   Scattered Clouds
8:15 AM 63.7 °F 63.5 °F 99% 29.77 in 3.0 mi Calm Calm - N/A   Clear
8:35 AM 63.9 °F 63.9 °F 100% 29.78 in 3.0 mi Calm Calm - N/A   Scattered Clouds
8:55 AM 64.4 °F 64.2 °F 99% 29.79 in 4.0 mi WSW 3.5 mph - N/A   Scattered Clouds
9:15 AM 65.1 °F 63.9 °F 96% 29.80 in 7.0 mi WSW 5.8 mph - N/A   Scattered Clouds
9:35 AM 65.5 °F 63.1 °F 92% 29.80 in 7.0 mi West 5.8 mph - N/A   Scattered Clouds
9:55 AM 66.0 °F 63.1 °F 90% 29.81 in 7.0 mi West 3.5 mph - N/A   Scattered Clouds
10:15 AM 66.7 °F 63.0 °F 88% 29.81 in 7.0 mi SW 4.6 mph - N/A   Mostly Cloudy
10:35 AM 67.1 °F 62.6 °F 85% 29.81 in 10.0 mi Calm Calm - N/A   Scattered Clouds
10:55 AM 68.5 °F 60.8 °F 76% 29.81 in 10.0 mi SW 5.8 mph - N/A   Clear
11:15 AM 70.2 °F 55.9 °F 61% 29.81 in 10.0 mi SSW 6.9 mph - N/A   Clear
11:55 AM 71.2 °F 53.6 °F 54% 29.81 in 10.0 mi SW 6.9 mph - N/A   Clear
12:15 PM 72.0 °F 49.8 °F 46% 29.81 in 10.0 mi SSW 8.1 mph - N/A   Clear
12:35 PM 72.5 °F 47.5 °F 41% 29.81 in 10.0 mi SW 11.5 mph 18.4 mph N/A   Clear
12:55 PM 73.2 °F 45.0 °F 36% 29.80 in 10.0 mi SSW 9.2 mph 16.1 mph N/A   Clear
1:35 PM 73.6 °F 43.3 °F 34% 29.78 in 10.0 mi SSW 12.7 mph - N/A   Clear
1:55 PM 73.9 °F 41.2 °F 31% 29.77 in 10.0 mi SW 9.2 mph 16.1 mph N/A   Clear
2:15 PM 74.5 °F 41.0 °F 30% 29.77 in 10.0 mi SW 10.4 mph 16.1 mph N/A   Clear
2:35 PM 74.1 °F 40.5 °F 30% 29.76 in 10.0 mi SSW 12.7 mph 21.9 mph N/A   Clear
3:15 PM 74.7 °F 39.0 °F 28% 29.76 in 10.0 mi SSW 15.0 mph 21.9 mph N/A   Clear
3:35 PM 74.7 °F 37.9 °F 26% 29.75 in 10.0 mi SW 12.7 mph - N/A   Clear
3:55 PM 74.7 °F 39.0 °F 28% 29.74 in 10.0 mi SW 15.0 mph 19.6 mph N/A   Clear
4:15 PM 74.7 °F 37.2 °F 26% 29.74 in 10.0 mi SW 9.2 mph 17.3 mph N/A   Clear
4:35 PM 74.7 °F 38.1 °F 27% 29.74 in 10.0 mi SW 10.4 mph 20.7 mph N/A   Clear
5:15 PM 74.1 °F 39.0 °F 28% 29.73 in 10.0 mi SSW 9.2 mph - N/A   Clear
5:35 PM 73.4 °F 39.0 °F 29% 29.73 in 10.0 mi SW 6.9 mph - N/A   Clear
5:55 PM 72.3 °F 40.8 °F 32% 29.74 in 10.0 mi SSW 5.8 mph - N/A   Clear
6:15 PM 71.1 °F 40.8 °F 33% 29.74 in 10.0 mi SSW 6.9 mph - N/A   Clear
6:55 PM 66.6 °F 41.7 °F 40% 29.74 in 10.0 mi SW 4.6 mph - N/A   Clear
7:15 PM 64.9 °F 42.4 °F 44% 29.75 in 10.0 mi SSW 3.5 mph - N/A   Clear
7:55 PM 63.5 °F 41.9 °F 45% 29.76 in 10.0 mi SSW 3.5 mph - N/A   Clear
8:15 PM 62.6 °F 42.6 °F 48% 29.76 in 10.0 mi South 3.5 mph - N/A   Clear
8:55 PM 60.6 °F 43.2 °F 53% 29.77 in 10.0 mi SSW 3.5 mph - N/A   Clear
9:15 PM 61.2 °F 42.6 °F 51% 29.78 in 10.0 mi Calm Calm - N/A   Clear
9:35 PM 59.9 °F 43.2 °F 54% 29.79 in 10.0 mi Calm Calm - N/A   Clear
10:15 PM 56.8 °F 45.9 °F 67% 29.80 in 10.0 mi Calm Calm - N/A   Clear
10:35 PM 55.4 °F 45.9 °F 70% 29.80 in 10.0 mi Calm Calm - N/A   Clear
10:55 PM 56.5 °F 45.1 °F 66% 29.80 in 10.0 mi South 3.5 mph - N/A   Clear
11:15 PM 56.3 °F 44.8 °F 65% 29.81 in 10.0 mi Calm Calm - N/A   Clear
11:35 PM 54.7 °F 44.8 °F 69% 29.81 in 10.0 mi Calm Calm - N/A   Clear
11:55 PM 54.7 °F 44.6 °F 69% 29.81 in 10.0 mi South 3.5 mph - N/A   Clear